This demonstration page uses our WeatherBlox Daily Observations layout. Learn more.

Left ArrowRight Arrow

39.01783, -85.05884

Hourly Observations for August 10, 2017

Temp ( °F °C ) Dew Point ( °F °C ) Humidity (%) Winds ( mph kmh ) Pressure ( in mb ) Visibility ( mi km ) Precip ( " mm )
12:52 am 00:52 Clear 67 19.4 58 14.4 73 73 ESE 6 9 30.14 1021 10 16 0.00 0.00
1:52 am 01:52 Partly Cloudy 67 19.4 58 14.4 73 73 E 3 6 30.12 1020 10 16 0.00 0.00
2:52 am 02:52 Mostly Cloudy 68 20 58 14.4 70 70 ENE 6 9 30.11 1020 10 16 0.00 0.00
3:52 am 03:52 Mostly Cloudy 67 19.4 59 15 76 76 E 3 6 30.10 1019 10 16 0.00 0.00
4:52 am 04:52 Mostly Cloudy 67 19.4 58 14.4 73 73 Calm 30.10 1019 10 16 0.00 0.00
5:52 am 05:52 Mostly Cloudy 65 18.3 59 15 81 81 SE 3 6 30.10 1019 10 16 0.00 0.00
6:52 am 06:52 Mostly Cloudy 66 18.9 58 14.4 75 75 E 3 6 30.10 1019 10 16 0.00 0.00
7:52 am 07:52 Mostly Cloudy 65 18.3 61 16.1 87 87 Calm 30.11 1020 10 16 0.00 0.00
8:52 am 08:52 Partly Cloudy 69 20.6 62 16.7 78 78 SSE 3 6 30.11 1020 10 16 0.00 0.00
9:52 am 09:52 Mostly Sunny 72 22.2 66 18.9 82 82 VRB 5 7 30.11 1020 10 16 0.00 0.00
10:52 am 10:52 Mostly Sunny 74 23.3 68 20 82 82 Calm 30.11 1020 10 16 0.00 0.00
11:52 am 11:52 Mostly Sunny 79 26.1 68 20 69 69 VRB 5 7 30.11 1020 10 16 0.00 0.00
12:52 pm 12:52 Partly Cloudy 80 26.7 66 18.9 62 62 VRB 6 9 30.11 1020 10 16 0.00 0.00
1:52 pm 13:52 Partly Cloudy 82 27.8 62 16.7 51 51 SW 7 11 30.10 1019 10 16 0.00 0.00
2:52 pm 14:52 Mostly Sunny 81 27.2 61 16.1 51 51 VRB 7 11 30.09 1019 10 16 0.00 0.00
3:52 pm 15:52 Mostly Sunny 82 27.8 59 15 46 46 WSW 6 9 30.07 1018 10 16 0.00 0.00
4:52 pm 16:52 Mostly Sunny 83 28.3 60 15.6 46 46 W 8 13 30.06 1018 10 16 0.00 0.00
5:52 pm 17:52 Mostly Sunny 83 28.3 60 15.6 46 46 VRB 6 9 30.05 1018 10 16 0.00 0.00
6:52 pm 18:52 Mostly Sunny 81 27.2 60 15.6 49 49 W 8 13 30.04 1017 10 16 0.00 0.00
7:52 pm 19:52 Mostly Sunny 78 25.6 60 15.6 54 54 W 6 9 30.04 1017 10 16 0.00 0.00
8:52 pm 20:52 Mostly Clear 73 22.8 62 16.7 69 69 W 5 7 30.05 1018 10 16 0.00 0.00
9:52 pm 21:52 Mostly Clear 68 20 63 17.2 84 84 Calm 30.06 1018 10 16 0.00 0.00
10:52 pm 22:52 Mostly Clear 67 19.4 62 16.7 84 84 Calm 30.06 1018 10 16 0.00 0.00
11:52 pm 23:52 Mostly Clear 66 18.9 63 17.2 90 90 S 3 6 30.05 1018 10 16 0.00 0.00

Powered by AerisWeather